TimeCDT,TemperatureF,Dew PointF,Humidity,Sea Level PressureIn,VisibilityMPH,Wind Direction,Wind SpeedMPH,Gust SpeedMPH,PrecipitationIn,Events,Conditions,WindDirDegrees,DateUTC
12:50 AM,32.0,26.6,80,29.95,10.0,West,8.1,-,N/A,,Overcast,280,2013-03-12 05:50:00
12:52 AM,32.0,27.0,82,29.97,10.0,West,6.9,-,N/A,,Overcast,280,2013-03-12 05:52:00
1:52 AM,32.0,26.1,79,29.99,10.0,West,9.2,-,N/A,,Overcast,280,2013-03-12 06:52:00
2:20 AM,32.0,24.8,75,29.97,10.0,West,10.4,-,N/A,,Overcast,260,2013-03-12 07:20:00
2:52 AM,32.0,23.0,69,29.99,10.0,WNW,12.7,20.7,N/A,,Overcast,300,2013-03-12 07:52:00
3:30 AM,30.2,21.2,69,29.97,10.0,WNW,12.7,-,N/A,,Scattered Clouds,290,2013-03-12 08:30:00
3:52 AM,30.0,21.9,72,29.99,10.0,West,9.2,-,N/A,,Clear,280,2013-03-12 08:52:00
4:52 AM,28.9,21.9,75,29.99,10.0,West,9.2,-,N/A,,Clear,280,2013-03-12 09:52:00
5:52 AM,28.0,21.9,78,30.03,10.0,West,8.1,-,N/A,,Clear,270,2013-03-12 10:52:00
6:52 AM,27.0,21.9,81,30.03,10.0,West,10.4,-,N/A,,Clear,280,2013-03-12 11:52:00
7:52 AM,28.0,21.9,78,30.06,10.0,West,10.4,-,N/A,,Clear,260,2013-03-12 12:52:00
8:52 AM,30.0,24.1,79,30.07,10.0,West,13.8,-,N/A,,Clear,260,2013-03-12 13:52:00
9:52 AM,32.0,23.0,69,30.07,10.0,West,15.0,-,N/A,,Clear,260,2013-03-12 14:52:00
10:52 AM,35.1,26.1,70,30.08,10.0,WSW,15.0,-,N/A,,Clear,240,2013-03-12 15:52:00
11:52 AM,37.9,28.9,70,30.08,10.0,West,16.1,24.2,N/A,,Clear,260,2013-03-12 16:52:00
12:52 PM,39.9,28.0,63,30.07,10.0,WSW,12.7,18.4,N/A,,Partly Cloudy,250,2013-03-12 17:52:00
1:52 PM,43.0,32.0,65,30.06,10.0,WSW,19.6,24.2,N/A,,Mostly Cloudy,250,2013-03-12 18:52:00
2:52 PM,39.9,28.9,65,30.05,10.0,West,18.4,26.5,N/A,,Overcast,270,2013-03-12 19:52:00
3:52 PM,39.0,30.0,70,30.06,10.0,WNW,18.4,29.9,0.00,,Overcast,290,2013-03-12 20:52:00
4:52 PM,37.9,28.9,70,30.07,10.0,WNW,17.3,24.2,N/A,,Overcast,300,2013-03-12 21:52:00
5:52 PM,39.0,25.0,57,30.08,10.0,WNW,18.4,26.5,N/A,,Mostly Cloudy,290,2013-03-12 22:52:00
6:52 PM,37.0,25.0,62,30.10,10.0,WNW,20.7,31.1,N/A,,Overcast,290,2013-03-12 23:52:00
7:52 PM,35.1,24.1,64,30.12,10.0,West,16.1,24.2,0.00,,Overcast,270,2013-03-13 00:52:00
8:52 PM,33.1,27.0,78,30.13,10.0,West,13.8,-,0.00,,Overcast,270,2013-03-13 01:52:00
9:44 PM,30.2,26.6,86,30.14,5.0,NW,19.6,27.6,0.00,Snow,Light Snow,320,2013-03-13 02:44:00
9:52 PM,30.0,27.0,88,30.16,1.8,NW,17.3,28.8,0.00,Snow,Light Snow,310,2013-03-13 02:52:00
10:02 PM,30.2,26.6,86,30.15,3.0,WNW,16.1,24.2,0.00,Snow,Light Snow,300,2013-03-13 03:02:00
10:24 PM,30.2,21.2,69,30.15,10.0,WNW,21.9,29.9,0.00,,Overcast,300,2013-03-13 03:24:00
10:52 PM,30.0,21.0,69,30.18,10.0,NW,16.1,27.6,0.00,,Overcast,310,2013-03-13 03:52:00
11:52 PM,28.9,17.1,61,30.19,10.0,WNW,15.0,24.2,N/A,,Overcast,290,2013-03-13 04:52:00